CZ-4C DEB, 44616

Orbit data source: Space-Track

CZ-4C DEB, 44616 is space debris in SSO originally from a launch on Sat, 31 Mar 2018 UTC launched from the Taiyaun Space Center, China (TSC). Debris objects in space refer to the collection of defunct objects orbiting the Earth. Examples of debris include non-operational satellites, rocket bodies, and fragments generated from explosions, collisions, or faulty payload assembly.

Loading next visibility...
CZ-4C DEB details
Identifier
44616, 2018-031K
Orbit
SSO
Last TLE update13 hours ago
Origin
Flag of CNCNSA (CN / PRC)
ManufacturerUnknown
MissionSpacecraft
Bus & MotorUnknown
MassUnknown
Launch date (UTC)
2018-03-31 (7 years ago)
Launch vehicleUnknown
Launch site
Taiyaun Space Center, China (TSC)
Object type
Payload
Rocket body
Debris
Shape & HBRUnknown
Radar Cross SectionSmall (<0.1 m²)

Expand to show TLE details & history

TLE from 13 hours ago
0 CZ-4C DEB
1 44616U 18031K   25018.48060328  .00008681  00000-0  90871-3 0  9992
2 44616  97.8336 101.4849 0005332 189.7505 170.3610 14.89838717349396
Epoch: 2025-01-18T11:32Z
Definitive object data (Epoch: 2025-01-18T11:32:04.123Z)
Latitude-0.00001°
Longitude170.33844°
Altitude605.144 km
Speed7.555 km/s
True Right ascension06h 45m 56s
True Declination0° 00' 00"
Sunlit
Object was in full shadow at TLE epoch
Visualization TLE readout
Latitude81.65426°
Longitude59.75408°
Altitude612.208 km
Speed7.56 km/s
Apparent Right ascension14h 17m 55s
Apparent Declination34° 29' 08"
Sunlit
Object is in daylight
Visualization observer readout
Local Sidereal Time01:44:59
Azimuth352.973° N
Elevation-15.211°
Doppler factor1
Orbital elements
Apogee altitude599.182 km
Perigee altitude591.746 km
Semi-major axis6,973.601 km
Eccentricity0.0005332
Inclination97.8336°
RAAN101.4849°
Arg. of periapsis189.7505°
True anomaly170.37122°
Mean anomaly170.361°
Eccentric anomaly170.36611°
Mean motion3.72698 °/min
BSTAR0.00090871
Orbital period96.59 mins
Loading maneuver chart data...
Loading historical data...
Loading historical data...
Loading historical data...
Loading historical data...
Loading historical data...
Loading historical data...
Loading historical data...

CZ-4C DEB Visibility forecast

Observer location: undefined°, undefined

Span
Click to sort rows by Start time (UTC) header in descending order
Start Az.
Max El. time (UTC)
Max El. Az.
Max El.
End time (UTC)
End Az.
8 mins2025-01-19 05:22:45.272Z165.644° S2025-01-19 05:26:45.272Z76.396° E44.987°2025-01-19 05:30:45.272Z348.024° N
5 mins2025-01-19 18:44:45.272Z343.999° N2025-01-19 18:46:45.272Z287.677° WNW34.496°2025-01-19 18:49:45.272Z221.2° SW
|